Flag for U.S.A. Weather past 2 weeks in San Jose, California, U.S.A.

Now
55 °F

Clear.


Feels Like: 55 °F
Forecast: 53 / 73 °F
Wind: No wind

Location: San Jose International Airport

Current Time: May 24, 2015 at 3:07:08 AM

Latest Report: May 24, 2015 at 1:53 AM


Visibility: 10 mi

Pressure: 30.04 "Hg

Humidity: 74%

Dew point: 47 °F

Location of San JoseLocation

Historic Weather in San Jose — Graph

°F

San Jose temperature yesterday

Maximum temperature yesterday: 67 °F (at 1:53 PM)
Minimum temperature yesterday: 56 °F (at 3:53 AM)
Average temperature yesterday: 60 °F

Past Weeks' High & Low Weather Summary

 TemperatureHumidityPressure
High68 °F (May 14, 11:53 AM)100% (May 14, 4:53 PM)30.13 "Hg (May 14, 4:53 PM)
Low47 °F (May 12, 5:53 AM)34% (May 12, 4:53 PM)29.80 "Hg (May 14, 5:53 PM)
Average58 °F66%29.99 "Hg
* Reported May 9 1:53 AM — May 24 1:53 AM, San Jose, Weather by CustomWeather, © 2015

Note: Actual official high and low records may vary slightly from our data, if they occured in-between our weather recording intervals... More about our weather records

Advertising

San Jose weather history for previous 24 hours

 ConditionsComfort  
Time TempWeatherWind HumidityBarometerVisibility
1:53 AM
Sun, May 24
55 °FClear.No wind74%30.04 "Hg10 mi
12:53 AM55 °FClear.5 mph74%30.05 "Hg10 mi
11:53 PM
Sat, May 23
56 °FPassing clouds.5 mph72%30.06 "Hg10 mi
10:53 PM56 °FPassing clouds.6 mph72%30.07 "Hg10 mi
9:53 PM56 °FPassing clouds.12 mph75%30.07 "Hg10 mi
8:53 PM58 °FPassing clouds.10 mph70%30.06 "Hg10 mi
7:53 PM60 °FScattered clouds.10 mph65%30.05 "Hg10 mi
6:53 PM62 °FScattered clouds.16 mph60%30.05 "Hg10 mi
5:53 PM64 °FScattered clouds.14 mph56%30.04 "Hg10 mi
4:53 PM66 °FScattered clouds.15 mph56%30.04 "Hg10 mi
3:53 PM67 °FScattered clouds.12 mph53%30.05 "Hg10 mi
2:53 PM67 °FScattered clouds.12 mph55%30.05 "Hg10 mi
1:53 PM67 °FPartly sunny.10 mph53%30.07 "Hg10 mi
12:53 PM65 °FScattered clouds.5 mph56%30.08 "Hg10 mi
11:53 AM64 °FPartly sunny.12 mph56%30.10 "Hg10 mi
10:53 AM61 °FPartly sunny.6 mph62%30.10 "Hg10 mi
9:53 AM60 °FPartly sunny.9 mph65%30.10 "Hg10 mi
8:53 AM58 °FPartly sunny.7 mph70%30.11 "Hg10 mi
7:53 AM57 °FMostly cloudy.8 mph74%30.10 "Hg10 mi
6:53 AM58 °FOvercast.No wind72%30.09 "Hg10 mi
5:53 AM57 °FOvercast.6 mph72%30.07 "Hg10 mi
4:53 AM57 °FOvercast.No wind74%30.07 "Hg10 mi
3:53 AM56 °FOvercast.7 mph77%30.08 "Hg10 mi
Weather by CustomWeather, © 2015

See weather overviewHow to use our weather pages